Torna al catalogo

STARLINK-35777

AttivoComunicazioniVLEO
NORAD 66975·PAYLOAD·🇺🇸 United States

Lanciato Dec 8, 2025 da Cape Canaveral Space Force Station

Loading…

Prossimi Passaggi (prossime 24 ore)

TLE

AggiornatoSource: CelesTrak SupGP

Epoca: Sep 15, 2026, 02:34 UTC

1 66975C 25288S   26258.10743056 -.00023186  00000+0 -83966-3 0  2581
2 66975  43.0028  34.1381 0001709 267.4014  17.9060 15.27594644    14

Traccia STARLINK-35777 in tempo reale con AllMySat

Download on the App Store